Regional Weather Roundup
Issued by NWS

Home | Current Version | Previous Version | Text Only | Print | Product List | Glossary Off
Versions: 1 2 3 4 5 6 7 8 9 10 11 12 13 14 15 16 17 18 19 20 21 22 23 24 25 26 27 28 29 30 31 32 33 34 35 36 37 38 39 40 41 42 43 44 45 46 47 48 49 50

000
ASUS43 KOAX 220810
RWRNE

WEATHER ROUNDUP FOR NEBRASKA
NATIONAL WEATHER SERVICE OMAHA NE
200 AM CST WED FEB 22 2017

NOTES: SATELLITE DATA IS BEING USED TO AUGMENT CLOUD COVER ABOVE
       12000 FEET.
       "FAIR" INDICATES FEW OR NO CLOUDS BELOW 12,000 FEET WITH NO
       SIGNIFICANT WEATHER AND/OR OBSTRUCTIONS TO VISIBILITY.

  * THESE STATIONS DO NOT REPORT WEATHER SUCH AS RAIN...SNOW OR FOG.

NEZ001>004-019>022-054>056-220900-
NEBRASKA PANHANDLE

CITY           SKY/WX    TMP DP  RH WIND       PRES   REMARKS
SCOTTSBLUFF    CLEAR     45  34  65 NW15      29.82R
ALLIANCE       CLEAR     44  31  60 NW15      29.79R
CHADRON        CLOUDY    49  37  63 W20G30    29.78R
KIMBALL        CLEAR     52  24  33 W15       29.81R
SIDNEY         CLEAR     46  15  28 CALM      29.79S
$$

NEZ057>060-069>072-079>082-220900-
SOUTHWEST NEBRASKA

CITY           SKY/WX    TMP DP  RH WIND       PRES   REMARKS
NORTH PLATTE   CLEAR     31  25  78 CALM      29.75F
IMPERIAL       CLOUDY    42  20  41 NW7       29.78F
LEXINGTON      CLOUDY    36  29  75 N5        29.73F WCI  32
MCCOOK         PTCLDY    48  26  42 W12       29.74F
OGALLALA       CLEAR     30  21  69 CALM      29.76F
$$

NEZ005>010-023>029-035>040-094-220900-
NORTH CENTRAL NEBRASKA

CITY           SKY/WX    TMP DP  RH WIND       PRES   REMARKS
VALENTINE      PTCLDY    35  28  75 W5        29.68F WCI  31
AINSWORTH      CLEAR     39  31  71 S7        29.72F WCI  34
BROKEN BOW     MOCLDY    43  33  68 CALM      29.71F
O`NEILL        CLEAR     47  32  55 W9        29.73R
ORD            CLOUDY    46  33  60 NW6       29.69F
THEDFORD       CLEAR     46  26  47 W6        29.75R
$$

NEZ041-046>049-061>064-073>077-083>087-220900-
SOUTH CENTRAL NEBRASKA

CITY           SKY/WX    TMP DP  RH WIND       PRES   REMARKS
GRAND ISLAND   PTCLDY    48  32  53 SW10      29.72F
AURORA         CLEAR     45  30  55 S13       29.72F
HASTINGS       CLEAR     47  29  49 W8        29.76S
HEBRON         CLEAR     51  32  49 S10       29.76F
HOLDREGE       CLOUDY    48  24  38 W3        29.73F
KEARNEY *      CLOUDY    43  27  52 CALM      29.74F
YORK           CLEAR     43  30  61 S9        29.74F
$$

NEZ011>018-030>034-042>045-220900-
NORTHEAST NEBRASKA

CITY           SKY/WX    TMP DP  RH WIND       PRES   REMARKS
NORFOLK        CLEAR     45  31  58 SW5       29.69F
ALBION         PTCLDY    51  32  47 CALM      29.70F
BLAIR          CLEAR     53  36  53 SW12      29.74S
FREMONT        CLEAR     50  34  54 S7        29.74F
TEKAMAH        CLEAR     48  36  63 S12       29.71F
WAYNE          CLEAR     42  34  72 S3        29.68F
$$

NEZ050>053-065>068-078-088>093-220900-
SOUTHEAST NEBRASKA

CITY           SKY/WX    TMP DP  RH WIND       PRES   REMARKS
LINCOLN        CLEAR     50  34  54 SW3       29.77S
OMAHA EPPLEY   CLEAR     47  35  63 SE9       29.75S
BEATRICE       CLEAR     52  36  54 S9        29.77F
FALLS CITY     PTCLDY    53  33  46 S15       29.79F
NEBRASKA CITY  PTCLDY    51  29  42 SW15      29.77F
PLATTSMOUTH    CLEAR     55  30  39 S18       29.74F
$$

NEZ044-045-051>053-067-220900-
OMAHA AREA

CITY           SKY/WX    TMP DP  RH WIND       PRES   REMARKS
OMAHA EPPLEY   CLEAR     47  35  63 SE9       29.75S
BLAIR          CLEAR     53  36  53 SW12      29.74S
FREMONT        CLEAR     50  34  54 S7        29.74F
MILLARD        CLEAR     58  37  45 SW6       29.75S
OFFUTT AFB     CLEAR     48  35  60 E6        29.75F
PLATTSMOUTH    CLEAR     55  30  39 S18       29.74F
WAHOO          FAIR      49  33  55 SW8       29.75R
$$




USA.gov is the U.S. government's official web portal to all federal, state and local government web resources and services.